Home   Weather   Rapid City   Past weeks

Flag for USA Past Weather in Rapid City, South Dakota, USA — Yesterday and Last 2 Weeks

Now
38 °F

More clouds than sun.


Feels Like: 34 °F
Forecast: 25 / 44 °F
Wind: 6 mph from East

Location: Ellsworth Air Force Base

Current Time: Apr 27, 2017 at 10:41:47 am

Latest Report: Apr 27, 2017 at 9:58 am


Visibility: 10 mi

Pressure: 29.72 "Hg (26.34 "Hg at 977m altitude)

Humidity: 83%

Dew Point: 34 °F

Location of Rapid CityLocation

Past Weather in Rapid City — Graph

°F

Rapid City Temperature Yesterday

Maximum temperature yesterday: 40 °F (at 5:58 pm)
Minimum temperature yesterday: 27 °F (at 12:58 am)
Average temperature yesterday: 32 °F

High & Low Weather Summary for the Past Weeks

 TemperatureHumidityPressure
High76 °F (Apr 13, 4:58 pm)100% (Apr 13, 2:58 am)30.29 "Hg (Apr 13, 2:58 am)
Low27 °F (Apr 25, 11:58 pm)25% (Apr 16, 1:58 pm)29.54 "Hg (Apr 24, 2:58 am)
Average47 °F71%29.91 "Hg
* Reported Apr 12 8:58 am — Apr 27 8:58 am, Rapid City, Weather by CustomWeather, © 2017

Note: Actual official high and low records may vary slightly from our data, if they occured in-between our weather recording intervals... More about our weather records

Advertising

Rapid City Weather History for the Previous 24 Hours

Scroll right to see more
 ConditionsComfort  
Time TempWeatherWind HumidityBarometerVisibility
8:58 am
Thu, Apr 27
35 °FScattered clouds.3 mph93%29.73 "Hg10 mi
7:58 am33 °FScattered clouds.6 mph94%29.73 "Hg10 mi
6:58 am29 °FSunny.No wind100%29.71 "Hg10 mi
5:58 am28 °FPassing clouds.No wind100%29.71 "Hg10 mi
3:58 am29 °FClear.3 mph96%29.72 "Hg10 mi
2:58 am31 °FClear.No wind89%29.73 "Hg10 mi
1:58 am31 °FClear.5 mph96%29.74 "Hg10 mi
12:58 am30 °FClear.7 mph99%29.76 "Hg10 mi
11:58 pm
Wed, Apr 26
31 °FClear.6 mph95%29.76 "Hg10 mi
10:58 pm31 °FClear.6 mph96%29.79 "Hg10 mi
9:58 pm31 °FClear.8 mph96%29.80 "Hg10 mi
8:58 pm33 °FClear.8 mph89%29.72 "Hg10 mi
7:58 pm36 °FPassing clouds.5 mph79%29.80 "Hg10 mi
6:58 pm39 °FOvercast.7 mph74%29.80 "Hg10 mi
5:58 pm40 °FSunny.7 mph68%29.81 "Hg10 mi
4:58 pm38 °FScattered clouds.7 mph71%29.82 "Hg10 mi
4:20 pm37 °FOvercast.7 mph75%29.82 "Hg10 mi
3:58 pm38 °FOvercast.9 mph70%29.83 "Hg10 mi
2:58 pm36 °FOvercast.10 mph72%29.86 "Hg10 mi
1:58 pm35 °FOvercast.9 mph71%29.87 "Hg10 mi
12:58 pm34 °FOvercast.8 mph71%29.89 "Hg10 mi
11:58 am33 °FOvercast.12 mph70%29.90 "Hg10 mi
10:58 am31 °FOvercast.9 mph75%29.93 "Hg10 mi
Weather by CustomWeather, © 2017

See weather overviewHow to use our weather pages